RPA4418 KDCA-KCMH

Flight info

Callsign RPA4418
Flight time 0h 54m
Altitude 36000
Route WYNGS5 RAMAY Q72 HACKS SCRLT2
Aircraft E75L/M-SDE3GILORVW/S

Departure

Time 2026-04-22 23:28
Airport Ronald Reagan Washington National Airport (KDCA)

Arrival

Time 2026-04-23 00:23
Airport John Glenn Columbus International Airport (KCMH)
Time Latitude Longitude Altitude Speed Heading
2026-04-22 22:58 38.85442 -77.04236 22 ft 0 kts 162°
2026-04-22 23:10 38.85441 -77.04236 40 ft 0 kts 162°
2026-04-22 23:19 38.85446 -77.04238 22 ft 2 kts 161°
2026-04-22 23:20 38.85464 -77.04247 22 ft 3 kts 154°
2026-04-22 23:20 38.85480 -77.04261 23 ft 3 kts 135°
2026-04-22 23:20 38.85489 -77.04282 22 ft 2 kts 88°
2026-04-22 23:20 38.85487 -77.04290 22 ft 1 kts 72°
2026-04-22 23:22 38.85488 -77.04289 22 ft 0 kts 72°
2026-04-22 23:24 38.85488 -77.04288 22 ft 1 kts 72°
2026-04-22 23:25 38.85495 -77.04259 22 ft 6 kts 72°
2026-04-22 23:25 38.85513 -77.04189 22 ft 10 kts 72°
2026-04-22 23:25 38.85537 -77.04089 22 ft 11 kts 72°
2026-04-22 23:25 38.85598 -77.04037 22 ft 11 kts
2026-04-22 23:26 38.85676 -77.04033 22 ft 7 kts 31°
2026-04-22 23:26 38.85686 -77.04020 23 ft 0 kts 53°
2026-04-22 23:26 38.85705 -77.03993 23 ft 8 kts 36°
2026-04-22 23:26 38.85791 -77.03983 24 ft 18 kts 356°
2026-04-22 23:27 38.85937 -77.03981 22 ft 22 kts 13°
2026-04-22 23:27 38.86005 -77.03958 22 ft 0 kts 17°
2026-04-22 23:27 38.86010 -77.03956 22 ft 3 kts 17°
2026-04-22 23:27 38.86058 -77.03935 22 ft 11 kts 26°
2026-04-22 23:28 38.86073 -77.03872 24 ft 10 kts 155°
2026-04-22 23:28 38.85830 -77.03844 23 ft 73 kts 175°
2026-04-22 23:28 38.85042 -77.03761 60 ft 147 kts 176°
2026-04-22 23:28 38.83938 -77.03629 747 ft 173 kts 175°
2026-04-22 23:29 38.82613 -77.03456 1414 ft 201 kts 176°
2026-04-22 23:29 38.81183 -77.03309 2548 ft 211 kts 180°
2026-04-22 23:29 38.79656 -77.03346 3538 ft 230 kts 185°
2026-04-22 23:29 38.77921 -77.03527 4010 ft 268 kts 195°
2026-04-22 23:30 38.76231 -77.04507 5095 ft 269 kts 221°
2026-04-22 23:30 38.75088 -77.06332 6287 ft 263 kts 249°
2026-04-22 23:30 38.74697 -77.08584 7392 ft 260 kts 268°
2026-04-22 23:30 38.74559 -77.10958 7856 ft 270 kts 269°
2026-04-22 23:31 38.74425 -77.13362 7917 ft 271 kts 269°
2026-04-22 23:31 38.74279 -77.15762 7961 ft 269 kts 268°
2026-04-22 23:31 38.74129 -77.18146 7987 ft 268 kts 268°
2026-04-22 23:31 38.73981 -77.20522 7975 ft 267 kts 268°
2026-04-22 23:32 38.73832 -77.22888 8097 ft 265 kts 268°
2026-04-22 23:32 38.74014 -77.25211 9034 ft 263 kts 291°
2026-04-22 23:32 38.74852 -77.27296 10012 ft 264 kts 302°
2026-04-22 23:32 38.75845 -77.29379 10422 ft 290 kts 303°
2026-04-22 23:33 38.76899 -77.31594 11370 ft 286 kts 303°
2026-04-22 23:33 38.77892 -77.33677 12917 ft 274 kts 303°
2026-04-22 23:33 38.78906 -77.35799 13885 ft 281 kts 303°
2026-04-22 23:33 38.79934 -77.37949 14873 ft 284 kts 303°
2026-04-22 23:34 38.80972 -77.40119 15893 ft 287 kts 303°
2026-04-22 23:34 38.82008 -77.42290 16842 ft 291 kts 303°
2026-04-22 23:34 38.83072 -77.44517 17782 ft 295 kts 303°
2026-04-22 23:34 38.84148 -77.46771 18661 ft 298 kts 303°
2026-04-22 23:35 38.85240 -77.49061 19407 ft 303 kts 303°
2026-04-22 23:35 38.86351 -77.51390 20196 ft 306 kts 303°
2026-04-22 23:35 38.87462 -77.53725 21030 ft 310 kts 304°
2026-04-22 23:35 38.88592 -77.56101 21763 ft 314 kts 304°
2026-04-22 23:36 38.89741 -77.58512 22453 ft 320 kts 304°
2026-04-22 23:36 38.90918 -77.60949 23138 ft 323 kts 305°
2026-04-22 23:36 38.92112 -77.63414 23800 ft 327 kts 304°
2026-04-22 23:36 38.93304 -77.65902 24517 ft 328 kts 305°
2026-04-22 23:37 38.94329 -77.68535 25169 ft 335 kts 292°
2026-04-22 23:37 38.94686 -77.71533 25834 ft 345 kts 279°
2026-04-22 23:37 38.94762 -77.74632 26445 ft 349 kts 277°
2026-04-22 23:37 38.94804 -77.77762 27036 ft 352 kts 277°
2026-04-22 23:38 38.94830 -77.80917 27609 ft 355 kts 277°
2026-04-22 23:38 38.94863 -77.84097 28201 ft 357 kts 277°
2026-04-22 23:38 38.94937 -77.87294 28729 ft 359 kts 279°
2026-04-22 23:38 38.95044 -77.90505 29287 ft 361 kts 279°
2026-04-22 23:39 38.95156 -77.93742 29738 ft 365 kts 279°
2026-04-22 23:39 38.95266 -77.97017 30222 ft 367 kts 279°
2026-04-22 23:39 38.95376 -78.00306 30662 ft 370 kts 279°
2026-04-22 23:39 38.95487 -78.03624 31050 ft 373 kts 279°
2026-04-22 23:40 38.95596 -78.06961 31491 ft 375 kts 279°
2026-04-22 23:40 38.95707 -78.10324 31890 ft 378 kts 279°
2026-04-22 23:40 38.95817 -78.13709 32263 ft 381 kts 279°
2026-04-22 23:40 38.95926 -78.17117 32646 ft 383 kts 279°
2026-04-22 23:41 38.96036 -78.20548 32997 ft 386 kts 279°
2026-04-22 23:41 38.96193 -78.23990 33313 ft 386 kts 281°
2026-04-22 23:41 38.96425 -78.27432 33659 ft 388 kts 282°
2026-04-22 23:41 38.96658 -78.30893 33989 ft 390 kts 282°
2026-04-22 23:42 38.96889 -78.34380 34279 ft 392 kts 282°
2026-04-22 23:42 38.97118 -78.37881 34554 ft 394 kts 281°
2026-04-22 23:42 38.97346 -78.41403 34818 ft 396 kts 281°
2026-04-22 23:42 38.97574 -78.44950 35056 ft 399 kts 281°
2026-04-22 23:43 38.98030 -78.52127 35497 ft 403 kts 281°
2026-04-22 23:43 38.98255 -78.55710 35861 ft 402 kts 281°
2026-04-22 23:43 38.98481 -78.59304 35998 ft 406 kts 281°
2026-04-22 23:44 38.98939 -78.66653 36073 ft 418 kts 281°
2026-04-22 23:44 38.99397 -78.74157 36064 ft 423 kts 281°
2026-04-22 23:45 38.99854 -78.81718 36055 ft 424 kts 281°
2026-04-22 23:45 39.00309 -78.89285 36049 ft 425 kts 281°
2026-04-22 23:46 39.00760 -78.96862 36048 ft 425 kts 281°
2026-04-22 23:46 39.01206 -79.04434 36055 ft 425 kts 281°
2026-04-22 23:47 39.01645 -79.11968 36056 ft 427 kts 280°
2026-04-22 23:47 39.02090 -79.19623 36065 ft 426 kts 281°
2026-04-22 23:48 39.02596 -79.27217 36069 ft 425 kts 281°
2026-04-22 23:48 39.03094 -79.34798 36083 ft 425 kts 281°
2026-04-22 23:49 39.03584 -79.42383 36080 ft 426 kts 281°
2026-04-22 23:49 39.04068 -79.49967 36089 ft 425 kts 281°
2026-04-22 23:50 39.04548 -79.57556 36101 ft 426 kts 281°
2026-04-22 23:50 39.05022 -79.65148 36076 ft 425 kts 281°
2026-04-22 23:51 39.05414 -79.71459 36109 ft 426 kts 280°
2026-04-22 23:51 39.05878 -79.79055 36107 ft 426 kts 281°
2026-04-22 23:52 39.06340 -79.86681 36103 ft 428 kts 280°
2026-04-22 23:52 39.06798 -79.94315 36102 ft 428 kts 280°
2026-04-22 23:53 39.07251 -80.01954 36090 ft 428 kts 280°
2026-04-22 23:53 39.07698 -80.09591 36070 ft 428 kts 280°
2026-04-22 23:54 39.08140 -80.17222 36051 ft 428 kts 280°
2026-04-22 23:54 39.08577 -80.24868 36066 ft 429 kts 280°
2026-04-22 23:55 39.09008 -80.32516 36062 ft 428 kts 279°
2026-04-22 23:55 39.09421 -80.40166 36060 ft 428 kts 279°
2026-04-22 23:56 39.09828 -80.47816 36067 ft 428 kts 279°
2026-04-22 23:56 39.10232 -80.55461 36056 ft 429 kts 279°
2026-04-22 23:57 39.10633 -80.63140 36066 ft 430 kts 279°
2026-04-22 23:57 39.11025 -80.70772 36066 ft 430 kts 279°
2026-04-22 23:58 39.11419 -80.78512 36066 ft 431 kts 279°
2026-04-22 23:58 39.11805 -80.86206 36065 ft 430 kts 279°
2026-04-22 23:59 39.12185 -80.93896 36007 ft 430 kts 279°
2026-04-22 23:59 39.12369 -80.97698 35602 ft 419 kts 279°
2026-04-22 23:59 39.12544 -81.01382 34872 ft 412 kts 279°
2026-04-23 00:00 39.12938 -81.08899 31980 ft 422 kts 282°
2026-04-23 00:00 39.13638 -81.12453 30517 ft 401 kts 296°
2026-04-23 00:00 39.14730 -81.15728 29061 ft 395 kts 296°
2026-04-23 00:01 39.15773 -81.18992 28159 ft 389 kts 295°
2026-04-23 00:01 39.16759 -81.22160 27660 ft 376 kts 295°
2026-04-23 00:01 39.17713 -81.25245 27224 ft 365 kts 295°
2026-04-23 00:01 39.18646 -81.28278 26732 ft 364 kts 295°
2026-04-23 00:02 39.19583 -81.31343 26281 ft 371 kts 295°
2026-04-23 00:02 39.20528 -81.34456 25760 ft 375 kts 294°
2026-04-23 00:02 39.21475 -81.37590 25270 ft 375 kts 294°
2026-04-23 00:02 39.22419 -81.40722 24771 ft 375 kts 294°
2026-04-23 00:03 39.23360 -81.43849 24276 ft 374 kts 294°
2026-04-23 00:03 39.24297 -81.46968 23780 ft 373 kts 294°
2026-04-23 00:03 39.25229 -81.50080 23252 ft 370 kts 294°
2026-04-23 00:03 39.26149 -81.53156 22790 ft 366 kts 294°
2026-04-23 00:04 39.27064 -81.56215 22306 ft 364 kts 294°
2026-04-23 00:04 39.27970 -81.59251 21824 ft 361 kts 294°
2026-04-23 00:04 39.28865 -81.62255 21339 ft 357 kts 293°
2026-04-23 00:04 39.29754 -81.65238 20878 ft 355 kts 293°
2026-04-23 00:05 39.30636 -81.68203 20418 ft 354 kts 293°
2026-04-23 00:05 39.31516 -81.71165 19940 ft 352 kts 293°
2026-04-23 00:05 39.32391 -81.74109 19473 ft 351 kts 293°
2026-04-23 00:05 39.33261 -81.77043 19006 ft 349 kts 293°
2026-04-23 00:06 39.34127 -81.79970 18484 ft 348 kts 293°
2026-04-23 00:06 39.34985 -81.82871 18016 ft 344 kts 293°
2026-04-23 00:06 39.35834 -81.85744 17586 ft 341 kts 292°
2026-04-23 00:06 39.36677 -81.88598 17120 ft 339 kts 292°
2026-04-23 00:07 39.37514 -81.91434 16694 ft 337 kts 292°
2026-04-23 00:07 39.38345 -81.94252 16254 ft 334 kts 292°
2026-04-23 00:07 39.39169 -81.97055 15794 ft 332 kts 292°
2026-04-23 00:07 39.39987 -81.99835 15368 ft 330 kts 292°
2026-04-23 00:08 39.40798 -82.02597 14928 ft 328 kts 292°
2026-04-23 00:08 39.41604 -82.05343 14505 ft 327 kts 292°
2026-04-23 00:08 39.42411 -82.08098 14060 ft 326 kts 291°
2026-04-23 00:08 39.43211 -82.10829 13618 ft 325 kts 291°
2026-04-23 00:09 39.44007 -82.13551 13201 ft 324 kts 291°
2026-04-23 00:09 39.44791 -82.16237 12769 ft 321 kts 291°
2026-04-23 00:09 39.45573 -82.18919 12350 ft 317 kts 291°
2026-04-23 00:09 39.46346 -82.21566 11927 ft 311 kts 291°
2026-04-23 00:10 39.47105 -82.24171 11514 ft 307 kts 291°
2026-04-23 00:10 39.47849 -82.26728 11103 ft 300 kts 291°
2026-04-23 00:10 39.48575 -82.29226 10723 ft 293 kts 291°
2026-04-23 00:10 39.49285 -82.31667 10340 ft 286 kts 291°
2026-04-23 00:11 39.49990 -82.34029 10124 ft 277 kts 295°
2026-04-23 00:11 39.51167 -82.35934 9981 ft 269 kts 319°
2026-04-23 00:11 39.52660 -82.37382 10000 ft 269 kts 322°
2026-04-23 00:11 39.54179 -82.38817 9991 ft 272 kts 322°
2026-04-23 00:12 39.55712 -82.40265 10008 ft 274 kts 322°
2026-04-23 00:12 39.57258 -82.41721 10015 ft 275 kts 322°
2026-04-23 00:12 39.58808 -82.43181 10010 ft 275 kts 322°
2026-04-23 00:12 39.60360 -82.44640 9996 ft 276 kts 322°
2026-04-23 00:13 39.61912 -82.46101 10004 ft 275 kts 322°
2026-04-23 00:13 39.63461 -82.47561 10011 ft 275 kts 322°
2026-04-23 00:13 39.65014 -82.49024 10001 ft 275 kts 322°
2026-04-23 00:13 39.66558 -82.50482 10157 ft 272 kts 322°
2026-04-23 00:14 39.68123 -82.51963 9866 ft 281 kts 323°
2026-04-23 00:14 39.69726 -82.53403 9479 ft 279 kts 322°
2026-04-23 00:14 39.71283 -82.54895 9094 ft 276 kts 322°
2026-04-23 00:14 39.72849 -82.56311 8701 ft 273 kts 323°
2026-04-23 00:15 39.74409 -82.57687 8318 ft 269 kts 323°
2026-04-23 00:15 39.75953 -82.59046 7942 ft 267 kts 323°
2026-04-23 00:15 39.77488 -82.60388 7566 ft 265 kts 323°
2026-04-23 00:15 39.79008 -82.61726 7192 ft 263 kts 322°
2026-04-23 00:16 39.80521 -82.63054 6833 ft 261 kts 324°
2026-04-23 00:16 39.82205 -82.63925 6452 ft 264 kts 345°
2026-04-23 00:16 39.84033 -82.64147 6092 ft 262 kts 353°
2026-04-23 00:16 39.85803 -82.64288 6014 ft 247 kts 352°
2026-04-23 00:17 39.87442 -82.64437 5965 ft 232 kts 351°
2026-04-23 00:17 39.89065 -82.64597 5829 ft 238 kts 351°
2026-04-23 00:17 39.90723 -82.64777 5460 ft 237 kts 349°
2026-04-23 00:17 39.92357 -82.65038 5079 ft 234 kts 348°
2026-04-23 00:18 39.93955 -82.65304 4698 ft 228 kts 348°
2026-04-23 00:18 39.95487 -82.65583 4284 ft 213 kts 341°
2026-04-23 00:18 39.96668 -82.66502 3870 ft 191 kts 306°
2026-04-23 00:18 39.97414 -82.67899 3508 ft 187 kts 302°
2026-04-23 00:19 39.98136 -82.69233 3148 ft 174 kts 302°
2026-04-23 00:19 39.98492 -82.70632 2878 ft 158 kts 269°
2026-04-23 00:19 39.98458 -82.72038 2910 ft 156 kts 268°
2026-04-23 00:19 39.98417 -82.73425 2761 ft 148 kts 270°
2026-04-23 00:20 39.98469 -82.74713 2482 ft 138 kts 274°
2026-04-23 00:20 39.98544 -82.75925 2298 ft 131 kts 275°
2026-04-23 00:20 39.98607 -82.77105 2129 ft 130 kts 272°
2026-04-23 00:20 39.98659 -82.78273 1996 ft 128 kts 274°
2026-04-23 00:21 39.98724 -82.79461 1912 ft 133 kts 274°
2026-04-23 00:21 39.98792 -82.80674 1835 ft 134 kts 272°
2026-04-23 00:21 39.98860 -82.81884 1687 ft 136 kts 274°
2026-04-23 00:21 39.98928 -82.83151 1469 ft 145 kts 272°
2026-04-23 00:22 39.99008 -82.84466 1281 ft 145 kts 275°
2026-04-23 00:22 39.99070 -82.85772 1094 ft 143 kts 271°
2026-04-23 00:22 39.99151 -82.87097 892 ft 147 kts 271°
2026-04-23 00:22 39.99218 -82.88358 820 ft 124 kts 275°
2026-04-23 00:23 39.99264 -82.89146 820 ft 56 kts 275°
2026-04-23 00:23 39.99334 -82.89543 821 ft 27 kts 296°
2026-04-23 00:23 39.99409 -82.89680 819 ft 7 kts 331°
2026-04-23 00:23 39.99413 -82.89683 821 ft 2 kts 340°
2026-04-23 00:24 39.99456 -82.89669 821 ft 11 kts 45°
2026-04-23 00:24 39.99465 -82.89552 822 ft 15 kts 94°
2026-04-23 00:24 39.99456 -82.89400 824 ft 19 kts 95°
2026-04-23 00:24 39.99446 -82.89209 821 ft 24 kts 95°
2026-04-23 00:25 39.99434 -82.88980 820 ft 25 kts 94°
2026-04-23 00:25 39.99421 -82.88758 817 ft 23 kts 93°
2026-04-23 00:25 39.99412 -82.88567 816 ft 21 kts 94°
2026-04-23 00:25 39.99403 -82.88380 818 ft 16 kts 78°
2026-04-23 00:26 39.99494 -82.88324 817 ft 17 kts
2026-04-23 00:26 39.99612 -82.88291 816 ft 13 kts 60°
2026-04-23 00:26 39.99612 -82.88186 817 ft 13 kts 93°
2026-04-23 00:26 39.99604 -82.88063 818 ft 14 kts 95°
2026-04-23 00:27 39.99612 -82.87938 820 ft 14 kts 45°
2026-04-23 00:27 39.99706 -82.87908 821 ft 9 kts 356°
2026-04-23 00:27 39.99738 -82.87940 820 ft 5 kts 289°
2026-04-23 00:27 39.99742 -82.87989 819 ft 5 kts 276°
2026-04-23 00:28 39.99744 -82.88009 817 ft 0 kts 277°